Location: Mount Tamalpais State Park
(37.9108°N, 122.6128°W)
Time: 02:12:11
(UTC-07:00)

Cosmos 1814 Rocket - Visible Passes

Search period start: 02 September 2014 00:00
Search period end: 12 September 2014 00:00
Orbit: 745 x 789 km, 74.1° (Epoch: 01 September)

Date Brightness Start Highest point End Pass type
(mag) Time Alt. Az. Time Alt. Az. Time Alt. Az.
02 Sep 6.4 23:18:22 10° N 23:19:40 16° NNE 23:19:40 16° NNE visible
03 Sep 6.4 22:41:50 10° NNE 22:42:56 14° NNE 22:42:56 14° NNE visible
04 Sep 6.9 00:22:42 10° NNW 00:23:10 12° NNW 00:23:10 12° NNW visible
04 Sep 6.6 23:45:18 10° NNW 23:46:27 17° NNW 23:46:27 17° NNW visible
05 Sep 6.2 23:08:09 10° N 23:09:46 20° N 23:09:46 20° N visible
06 Sep 6.1 22:31:15 10° N 22:33:06 19° NNE 22:33:06 19° NNE visible
07 Sep 7.0 00:13:12 10° NW 00:13:20 11° NW 00:13:20 11° NW visible
07 Sep 6.1 21:54:46 10° NNE 21:56:27 15° NE 21:56:27 15° NE visible
07 Sep 6.6 23:35:31 10° NNW 23:36:41 17° NNW 23:36:41 17° NNW visible
08 Sep 6.1 22:58:08 10° NNW 23:00:04 23° NNW 23:00:04 23° NNW visible
09 Sep 5.7 22:21:00 10° N 22:23:29 26° N 22:23:29 26° N visible
10 Sep 5.6 21:44:08 10° N 21:46:55 23° NNE 21:46:55 23° NNE visible
10 Sep 6.6 23:25:59 10° NW 23:27:10 16° NW 23:27:10 16° NW visible
11 Sep 5.8 21:07:43 10° NNE 21:10:23 16° NE 21:10:23 16° NE visible
11 Sep 5.9 22:48:19 10° NNW 22:50:38 26° NW 22:50:38 26° NW visible
